Regional Weather Roundup
Issued by NWS Sioux Falls, SD

Home | Current Version | Previous Version | Text Only | Print | Product List | Glossary On
Versions: 1 2 3 4 5 6 7 8 9 10 11 12 13 14 15 16 17 18 19 20 21 22 23 24 25 26 27 28 29 30 31 32 33 34 35 36 37 38 39 40 41 42 43 44 45 46 47 48 49 50
000
ASUS43 KFSD 240002
RWRFSD

WEATHER ROUNDUP FOR SE SOUTH DAKOTA/SW MINNESOTA/NW IOWA
NATIONAL WEATHER SERVICE SIOUX FALLS SD
700 PM CDT FRI JUN 23 2017

NOTE: "FAIR" INDICATES FEW OR NO CLOUDS BELOW 12,000 FEET WITH NO
SIGNIFICANT WEATHER AND OR OBSTRUCTIONS TO VISIBILITY.


SDZ038>040-050-052>070-240100-
SOUTHEAST SOUTH DAKOTA

CITY           SKY/WX    TMP DP  RH WIND       PRES   REMARKS
BROOKINGS      MOSUNNY   66  45  46 N15       30.00R
CHAMBERLAIN    SUNNY     71  36  27 W21G30    30.07R
6HR MIN TEMP:  67; 6HR MAX TEMP:  73;

HURON          MOSUNNY   68  40  35 NW17      30.02S
6HR MIN TEMP:  65; 6HR MAX TEMP:  70;

MADISON        FAIR      64  39  39 NW21G30   30.01S
MITCHELL       SUNNY     71  37  28 N15G25    30.03S
6HR MIN TEMP:  67; 6HR MAX TEMP:  74;

SIOUX FALLS    MOSUNNY   68  42  38 NW22G28   29.99S
6HR MIN TEMP:  63; 6HR MAX TEMP:  69;

WINNER         FAIR      73  31  21 NW22G29   30.09R
YANKTON        MOSUNNY   71  41  33 NW17G28   30.02R
$$

MNZ071-072-080-081-089-090-097-098-240100-
SOUTHWEST MINNESOTA

CITY           SKY/WX    TMP DP  RH WIND       PRES   REMARKS
FAIRMONT       MOSUNNY   66  51  58 NW20G25   29.94R
JACKSON        PTSUNNY   64  50  59 NW18G26   29.97R
MARSHALL       PTSUNNY   65  50  58 NW16      29.97R
6HR MIN TEMP:  64; 6HR MAX TEMP:  68;

MONTEVIDEO     MOSUNNY   66  48  52 N13G23    29.95R
PIPESTONE      MOSUNNY   64  45  48 NW15G22   30.00R
REDWOOD FALLS  MOSUNNY   66  49  54 NW12G23   29.93R
TRACY          CLOUDY    65  50  57 NW17G25   29.97S
WINDOM         MOSUNNY   64  46  52 W17G25    29.97R
WORTHINGTON    MOSUNNY   64  49  57 NW17G25   29.99R
$$

IAZ001>003-012>014-020>022-031-032-NEZ013-014-SDZ071-240100-
NORTHWEST IOWA

CITY           SKY/WX    TMP DP  RH WIND       PRES   REMARKS
CHEROKEE       CLOUDY    67  49  52 NW12G20   29.99R
DENISON        SUNNY     72  50  46 NW16      29.99R
ESTHERVILLE    MOSUNNY   66  51  58 NW21G26   29.95R
LE MARS        SUNNY     68  46  45 NW13G22   30.00S
ORANGE CITY    SUNNY     66  48  52 NW16G24   29.99S
SHELDON        MOSUNNY   66  46  48 NW14G22   29.97S
SIOUX CITY     PTSUNNY   71  48  43 NW15G24   29.99R
6HR MIN TEMP:  69; 6HR MAX TEMP:  74;

SPENCER        CLOUDY    69  49  48 NW20G26   29.98R
6HR MIN TEMP:  65; 6HR MAX TEMP:  72;

STORM LAKE     MOSUNNY   68  48  49 NW18G30   29.98R
$$

ABBREVIATIONS USED IN REMARKS
   TC - TEMPERATURE IN CELSIUS
  WCI - WIND CHILL INDEX
   HX - HEAT INDEX
  VSB - VISIBILITY




USA.gov is the U.S. government's official web portal to all federal, state and local government web resources and services.